Year,Month,Day,Hour,Minute,Value (Times are PST for temperature in C)
2021,06,26,00,00,17.90
2021,06,26,00,01,17.90
2021,06,26,00,02,17.90
2021,06,26,00,03,17.80
2021,06,26,00,04,17.80
2021,06,26,00,05,17.80
2021,06,26,00,06,17.70
2021,06,26,00,07,17.70
2021,06,26,00,08,17.70
2021,06,26,00,09,17.70
2021,06,26,00,10,17.70
2021,06,26,00,11,17.70
2021,06,26,00,12,17.60
2021,06,26,00,13,17.60
2021,06,26,00,14,17.70
2021,06,26,00,15,17.70
2021,06,26,00,16,17.70
2021,06,26,00,17,17.70
2021,06,26,00,18,17.70
2021,06,26,00,19,17.70
2021,06,26,00,20,17.80
2021,06,26,00,21,17.80
2021,06,26,00,22,17.80
2021,06,26,00,23,17.80
2021,06,26,00,24,17.90
2021,06,26,00,25,17.90
2021,06,26,00,26,17.90
2021,06,26,00,27,17.90
2021,06,26,00,28,17.90
2021,06,26,00,29,17.90
2021,06,26,00,30,17.80
2021,06,26,00,31,17.80
2021,06,26,00,32,17.80
2021,06,26,00,33,17.80
2021,06,26,00,34,17.80
2021,06,26,00,35,17.70
2021,06,26,00,36,17.70
2021,06,26,00,37,17.70
2021,06,26,00,38,17.60
2021,06,26,00,39,17.60
2021,06,26,00,40,17.50
2021,06,26,00,41,17.50
2021,06,26,00,42,17.40
2021,06,26,00,43,17.30
2021,06,26,00,44,17.20
2021,06,26,00,45,17.10
2021,06,26,00,46,17.00
2021,06,26,00,47,16.90
2021,06,26,00,48,16.80
2021,06,26,00,49,16.60
2021,06,26,00,50,16.50
2021,06,26,00,51,16.40
2021,06,26,00,52,16.30
2021,06,26,00,53,16.10
2021,06,26,00,54,16.10
2021,06,26,00,55,15.90
2021,06,26,00,56,15.80
2021,06,26,00,57,15.70
2021,06,26,00,58,15.60
2021,06,26,00,59,15.50
2021,06,26,01,00,15.30
2021,06,26,01,01,15.20
2021,06,26,01,02,15.10
2021,06,26,01,03,15.10
2021,06,26,01,04,15.00
2021,06,26,01,05,14.90
2021,06,26,01,06,14.90
2021,06,26,01,07,14.80
2021,06,26,01,08,14.80
2021,06,26,01,09,14.80
2021,06,26,01,10,14.80
2021,06,26,01,11,14.70
2021,06,26,01,12,14.70
2021,06,26,01,13,14.70
2021,06,26,01,14,14.70
2021,06,26,01,15,14.70
2021,06,26,01,16,14.70
2021,06,26,01,17,14.70
2021,06,26,01,18,14.70
2021,06,26,01,19,14.70
2021,06,26,01,20,14.70
2021,06,26,01,21,14.70
2021,06,26,01,22,14.70
2021,06,26,01,23,14.70
2021,06,26,01,24,14.70
2021,06,26,01,25,14.70
2021,06,26,01,26,14.80
2021,06,26,01,27,14.80
2021,06,26,01,28,14.80
2021,06,26,01,29,14.80
2021,06,26,01,30,14.80
2021,06,26,01,31,14.80
2021,06,26,01,32,14.90
2021,06,26,01,33,14.90
2021,06,26,01,34,14.90
2021,06,26,01,35,15.00
2021,06,26,01,36,15.00
2021,06,26,01,37,15.10
2021,06,26,01,38,15.10
2021,06,26,01,39,15.20
2021,06,26,01,40,15.30
2021,06,26,01,41,15.30
2021,06,26,01,42,15.30
2021,06,26,01,43,15.40
2021,06,26,01,44,15.40
2021,06,26,01,45,15.50
2021,06,26,01,46,15.50
2021,06,26,01,47,15.50
2021,06,26,01,48,15.60
2021,06,26,01,49,15.60
2021,06,26,01,50,15.60
2021,06,26,01,51,15.60
2021,06,26,01,52,15.70
2021,06,26,01,53,15.70
2021,06,26,01,54,15.70
2021,06,26,01,55,15.70
2021,06,26,01,56,15.70
2021,06,26,01,57,15.60
2021,06,26,01,58,15.50
2021,06,26,01,59,15.50
2021,06,26,02,00,15.50
2021,06,26,02,01,15.50
2021,06,26,02,02,15.50
2021,06,26,02,03,15.40
2021,06,26,02,04,15.40
2021,06,26,02,05,15.40
2021,06,26,02,06,15.40
2021,06,26,02,07,15.40
2021,06,26,02,08,15.40
2021,06,26,02,09,15.40
2021,06,26,02,10,15.40
2021,06,26,02,11,15.50
2021,06,26,02,12,15.50
2021,06,26,02,13,15.50
2021,06,26,02,14,15.50
2021,06,26,02,15,15.40
2021,06,26,02,16,15.40
2021,06,26,02,17,15.40
2021,06,26,02,18,15.50
2021,06,26,02,19,15.50
2021,06,26,02,20,15.50
2021,06,26,02,21,15.50
2021,06,26,02,22,15.50
2021,06,26,02,23,15.50
2021,06,26,02,24,15.50
2021,06,26,02,25,15.50
2021,06,26,02,26,15.50
2021,06,26,02,27,15.50
2021,06,26,02,28,15.50
2021,06,26,02,29,15.50
2021,06,26,02,30,15.60
2021,06,26,02,31,15.60
2021,06,26,02,32,15.60
2021,06,26,02,33,15.70
2021,06,26,02,34,15.70
2021,06,26,02,35,15.70
2021,06,26,02,36,15.80
2021,06,26,02,37,15.80
2021,06,26,02,38,15.80
2021,06,26,02,39,15.80
2021,06,26,02,40,16.00
2021,06,26,02,41,16.10
2021,06,26,02,42,16.10
2021,06,26,02,43,16.20
2021,06,26,02,44,16.30
2021,06,26,02,45,16.40
2021,06,26,02,46,16.40
2021,06,26,02,47,16.40
2021,06,26,02,48,16.40
2021,06,26,02,49,16.50
2021,06,26,02,50,16.60
2021,06,26,02,51,16.60
2021,06,26,02,52,16.60
2021,06,26,02,53,16.60
2021,06,26,02,54,16.60
2021,06,26,02,55,16.70
2021,06,26,02,56,16.70
2021,06,26,02,57,16.70
2021,06,26,02,58,16.70
2021,06,26,02,59,16.70
2021,06,26,03,00,16.70
2021,06,26,03,01,16.70
2021,06,26,03,02,16.70
2021,06,26,03,03,16.70
2021,06,26,03,04,16.70
2021,06,26,03,05,16.70
2021,06,26,03,06,16.60
2021,06,26,03,07,16.60
2021,06,26,03,08,16.60
2021,06,26,03,09,16.60
2021,06,26,03,10,16.50
2021,06,26,03,11,16.40
2021,06,26,03,12,16.40
2021,06,26,03,13,16.40
2021,06,26,03,14,16.40
2021,06,26,03,15,16.40
2021,06,26,03,16,16.40
2021,06,26,03,17,16.40
2021,06,26,03,18,16.30
2021,06,26,03,19,16.30
2021,06,26,03,20,16.30
2021,06,26,03,21,16.30
2021,06,26,03,22,16.30
2021,06,26,03,23,16.30
2021,06,26,03,24,16.30
2021,06,26,03,25,16.30
2021,06,26,03,26,16.30
2021,06,26,03,27,16.30
2021,06,26,03,28,16.30
2021,06,26,03,29,16.40
2021,06,26,03,30,16.40
2021,06,26,03,31,16.40
2021,06,26,03,32,16.30
2021,06,26,03,33,16.30
2021,06,26,03,34,16.20
2021,06,26,03,35,16.10
2021,06,26,03,36,16.10
2021,06,26,03,37,16.10
2021,06,26,03,38,16.00
2021,06,26,03,39,15.90
2021,06,26,03,40,15.90
2021,06,26,03,41,15.90
2021,06,26,03,42,15.80
2021,06,26,03,43,15.90
2021,06,26,03,44,15.90
2021,06,26,03,45,15.90
2021,06,26,03,46,15.90
2021,06,26,03,47,15.90
2021,06,26,03,48,15.90
2021,06,26,03,49,16.00
2021,06,26,03,50,16.10
2021,06,26,03,51,16.10
2021,06,26,03,52,16.10
2021,06,26,03,53,16.10
2021,06,26,03,54,16.10
2021,06,26,03,55,16.10
2021,06,26,03,56,16.10
2021,06,26,03,57,16.10
2021,06,26,03,58,16.10
2021,06,26,03,59,16.10
2021,06,26,04,00,16.10
2021,06,26,04,01,16.10
2021,06,26,04,02,16.10
2021,06,26,04,03,16.10
2021,06,26,04,04,16.10
2021,06,26,04,05,16.10
2021,06,26,04,06,15.90
2021,06,26,04,07,15.90
2021,06,26,04,08,15.90
2021,06,26,04,09,15.90
2021,06,26,04,10,15.90
2021,06,26,04,11,15.90
2021,06,26,04,12,15.90
2021,06,26,04,13,15.90
2021,06,26,04,14,15.90
2021,06,26,04,15,15.90
2021,06,26,04,16,15.80
2021,06,26,04,17,15.80
2021,06,26,04,18,15.80
2021,06,26,04,19,15.80
2021,06,26,04,20,15.80
2021,06,26,04,21,15.80
2021,06,26,04,22,15.80
2021,06,26,04,23,15.80
2021,06,26,04,24,15.80
2021,06,26,04,25,15.80
2021,06,26,04,26,15.80
2021,06,26,04,27,15.80
2021,06,26,04,28,15.80
2021,06,26,04,29,15.80
2021,06,26,04,30,15.80
2021,06,26,04,31,15.80
2021,06,26,04,32,15.80
2021,06,26,04,33,15.70
2021,06,26,04,34,15.70
2021,06,26,04,35,15.70
2021,06,26,04,36,15.70
2021,06,26,04,37,15.70
2021,06,26,04,38,15.70
2021,06,26,04,39,15.70
2021,06,26,04,40,15.70
2021,06,26,04,41,15.70
2021,06,26,04,42,15.60
2021,06,26,04,43,15.60
2021,06,26,04,44,15.60
2021,06,26,04,45,15.50
2021,06,26,04,46,15.50
2021,06,26,04,47,15.50
2021,06,26,04,48,15.50
2021,06,26,04,49,15.50
2021,06,26,04,50,15.50
2021,06,26,04,51,15.40
2021,06,26,04,52,15.40
2021,06,26,04,53,15.40
2021,06,26,04,54,15.40
2021,06,26,04,55,15.40
2021,06,26,04,56,15.40
2021,06,26,04,57,15.40
2021,06,26,04,58,15.40
2021,06,26,04,59,15.40
2021,06,26,05,00,15.40
2021,06,26,05,01,15.40
2021,06,26,05,02,15.40
2021,06,26,05,03,15.40
2021,06,26,05,04,15.40
2021,06,26,05,05,15.40
2021,06,26,05,06,15.40
2021,06,26,05,07,15.40
2021,06,26,05,08,15.50
2021,06,26,05,09,15.50
2021,06,26,05,10,15.50
2021,06,26,05,11,15.50
2021,06,26,05,12,15.50
2021,06,26,05,13,15.40
2021,06,26,05,14,15.40
2021,06,26,05,15,15.40
2021,06,26,05,16,15.40
2021,06,26,05,17,15.50
2021,06,26,05,18,15.50
2021,06,26,05,19,15.50
2021,06,26,05,20,15.50
2021,06,26,05,21,15.60
2021,06,26,05,22,15.60
2021,06,26,05,23,15.60
2021,06,26,05,24,15.60
2021,06,26,05,25,15.70
2021,06,26,05,26,15.70
2021,06,26,05,27,15.70
2021,06,26,05,28,15.70
2021,06,26,05,29,15.80
2021,06,26,05,30,15.80
2021,06,26,05,31,15.80
2021,06,26,05,32,15.80
2021,06,26,05,33,15.80
2021,06,26,05,34,15.80
2021,06,26,05,35,15.90
2021,06,26,05,36,15.90
2021,06,26,05,37,16.00
2021,06,26,05,38,16.10
2021,06,26,05,39,16.10
2021,06,26,05,40,16.10
2021,06,26,05,41,16.20
2021,06,26,05,42,16.20
2021,06,26,05,43,16.30
2021,06,26,05,44,16.40
2021,06,26,05,45,16.40
2021,06,26,05,46,16.50
2021,06,26,05,47,16.60
2021,06,26,05,48,16.70
2021,06,26,05,49,16.70
2021,06,26,05,50,16.80
2021,06,26,05,51,16.90
2021,06,26,05,52,16.90
2021,06,26,05,53,17.00
2021,06,26,05,54,17.10
2021,06,26,05,55,17.10
2021,06,26,05,56,17.20
2021,06,26,05,57,17.30
2021,06,26,05,58,17.30
2021,06,26,05,59,17.30
2021,06,26,06,00,17.40
2021,06,26,06,01,17.40
2021,06,26,06,02,17.50
2021,06,26,06,03,17.50
2021,06,26,06,04,17.50
2021,06,26,06,05,17.60
2021,06,26,06,06,17.70
2021,06,26,06,07,17.80
2021,06,26,06,08,17.80
2021,06,26,06,09,17.90
2021,06,26,06,10,17.90
2021,06,26,06,11,18.10
2021,06,26,06,12,18.10
2021,06,26,06,13,18.20
2021,06,26,06,14,18.20
2021,06,26,06,15,18.30
2021,06,26,06,16,18.40
2021,06,26,06,17,18.40
2021,06,26,06,18,18.50
2021,06,26,06,19,18.50
2021,06,26,06,20,18.60
2021,06,26,06,21,18.60
2021,06,26,06,22,18.70
2021,06,26,06,23,18.70
2021,06,26,06,24,18.80
2021,06,26,06,25,18.90
2021,06,26,06,26,18.90
2021,06,26,06,27,19.00
2021,06,26,06,28,19.10
2021,06,26,06,29,19.10
2021,06,26,06,30,19.10
2021,06,26,06,31,19.20
2021,06,26,06,32,19.30
2021,06,26,06,33,19.30
2021,06,26,06,34,19.30
2021,06,26,06,35,19.40
2021,06,26,06,36,19.40
2021,06,26,06,37,19.40
2021,06,26,06,38,19.40
2021,06,26,06,39,19.40
2021,06,26,06,40,19.30
2021,06,26,06,41,19.30
2021,06,26,06,42,19.20
2021,06,26,06,43,19.10
2021,06,26,06,44,18.90
2021,06,26,06,45,18.80
2021,06,26,06,46,18.70
2021,06,26,06,47,18.50
2021,06,26,06,48,18.50
2021,06,26,06,49,18.30
2021,06,26,06,50,18.20
2021,06,26,06,51,18.10
2021,06,26,06,52,18.00
2021,06,26,06,53,17.90
2021,06,26,06,54,17.90
2021,06,26,06,55,17.90
2021,06,26,06,56,17.90
2021,06,26,06,57,17.90
2021,06,26,06,58,17.90
2021,06,26,06,59,17.90
2021,06,26,07,00,17.90
2021,06,26,07,01,17.90
2021,06,26,07,02,17.70
2021,06,26,07,03,17.60
2021,06,26,07,04,17.50
2021,06,26,07,05,17.40
2021,06,26,07,06,17.30
2021,06,26,07,07,17.20
2021,06,26,07,08,17.10
2021,06,26,07,09,17.00
2021,06,26,07,10,17.00
2021,06,26,07,11,16.90
2021,06,26,07,12,16.90
2021,06,26,07,13,16.90
2021,06,26,07,14,16.90
2021,06,26,07,15,17.00
2021,06,26,07,16,17.00
2021,06,26,07,17,17.00
2021,06,26,07,18,17.10
2021,06,26,07,19,17.30
2021,06,26,07,20,17.30
2021,06,26,07,21,17.30
2021,06,26,07,22,17.30
2021,06,26,07,23,17.30
2021,06,26,07,24,17.30
2021,06,26,07,25,17.30
2021,06,26,07,26,17.30
2021,06,26,07,27,17.30
2021,06,26,07,28,17.30
2021,06,26,07,29,17.30
2021,06,26,07,30,17.30
2021,06,26,07,31,17.30
2021,06,26,07,32,17.40
2021,06,26,07,33,17.40
2021,06,26,07,34,17.50
2021,06,26,07,35,17.50
2021,06,26,07,36,17.60
2021,06,26,07,37,17.70
2021,06,26,07,38,17.80
2021,06,26,07,39,17.90
2021,06,26,07,40,18.00
2021,06,26,07,41,18.10
2021,06,26,07,42,18.20
2021,06,26,07,43,18.30
2021,06,26,07,44,18.40
2021,06,26,07,45,18.50
2021,06,26,07,46,18.50
2021,06,26,07,47,18.60
2021,06,26,07,48,18.70
2021,06,26,07,49,18.70
2021,06,26,07,50,18.80
2021,06,26,07,51,18.90
2021,06,26,07,52,19.00
2021,06,26,07,53,19.10
2021,06,26,07,54,19.20
2021,06,26,07,55,19.30
2021,06,26,07,56,19.40
2021,06,26,07,57,19.60
2021,06,26,07,58,19.70
2021,06,26,07,59,19.80
2021,06,26,08,00,20.00
2021,06,26,08,01,20.10
2021,06,26,08,02,20.20
2021,06,26,08,03,20.40
2021,06,26,08,04,20.50
2021,06,26,08,05,20.60
2021,06,26,08,06,20.70
2021,06,26,08,07,20.80
2021,06,26,08,08,21.00
2021,06,26,08,09,21.10
2021,06,26,08,10,21.30
2021,06,26,08,11,21.30
2021,06,26,08,12,21.20
2021,06,26,08,13,21.10
2021,06,26,08,14,21.00
2021,06,26,08,15,20.90
2021,06,26,08,16,20.90
2021,06,26,08,17,20.80
2021,06,26,08,18,20.70
2021,06,26,08,19,20.70
2021,06,26,08,20,20.60
2021,06,26,08,21,20.60
2021,06,26,08,22,20.60
2021,06,26,08,23,20.70
2021,06,26,08,24,20.80
2021,06,26,08,25,20.90
2021,06,26,08,26,21.10
2021,06,26,08,27,21.20
2021,06,26,08,28,21.40
2021,06,26,08,29,21.50
2021,06,26,08,30,21.70
2021,06,26,08,31,21.80
2021,06,26,08,32,21.90
2021,06,26,08,33,21.90
2021,06,26,08,34,21.90
2021,06,26,08,35,21.80
2021,06,26,08,36,21.70
2021,06,26,08,37,21.60
2021,06,26,08,38,21.60
2021,06,26,08,39,21.50
2021,06,26,08,40,21.40
2021,06,26,08,41,21.40
2021,06,26,08,42,21.30
2021,06,26,08,43,21.30
2021,06,26,08,44,21.20
2021,06,26,08,45,21.20
2021,06,26,08,46,21.10
2021,06,26,08,47,21.10
2021,06,26,08,48,21.00
2021,06,26,08,49,21.00
2021,06,26,08,50,21.00
2021,06,26,08,51,21.00
2021,06,26,08,52,21.00
2021,06,26,08,53,21.00
2021,06,26,08,54,21.00
2021,06,26,08,55,21.10
2021,06,26,08,56,21.10
2021,06,26,08,57,21.20
2021,06,26,08,58,21.20
2021,06,26,08,59,21.30
2021,06,26,09,00,21.30
2021,06,26,09,01,21.30
2021,06,26,09,02,21.30
2021,06,26,09,03,21.30
2021,06,26,09,04,21.40
2021,06,26,09,05,21.40
2021,06,26,09,06,21.50
2021,06,26,09,07,21.60
2021,06,26,09,08,21.60
2021,06,26,09,09,21.60
2021,06,26,09,10,21.70
2021,06,26,09,11,21.70
2021,06,26,09,12,21.80
2021,06,26,09,13,21.90
2021,06,26,09,14,22.00
2021,06,26,09,15,22.00
2021,06,26,09,16,22.20
2021,06,26,09,17,22.30
2021,06,26,09,18,22.50
2021,06,26,09,19,22.60
2021,06,26,09,20,22.60
2021,06,26,09,21,22.80
2021,06,26,09,22,22.90
2021,06,26,09,23,23.00
2021,06,26,09,24,23.10
2021,06,26,09,25,23.30
2021,06,26,09,26,23.40
2021,06,26,09,27,23.50
2021,06,26,09,28,23.70
2021,06,26,09,29,23.90
2021,06,26,09,30,24.10
2021,06,26,09,31,24.30
2021,06,26,09,32,24.50
2021,06,26,09,33,24.70
2021,06,26,09,34,24.90
2021,06,26,09,35,25.00
2021,06,26,09,36,25.20
2021,06,26,09,37,25.20
2021,06,26,09,38,25.60
2021,06,26,09,39,25.80
2021,06,26,09,40,26.00
2021,06,26,09,41,26.20
2021,06,26,09,42,26.30
2021,06,26,09,43,26.50
2021,06,26,09,44,26.60
2021,06,26,09,45,26.60
2021,06,26,09,46,26.60
2021,06,26,09,47,27.00
2021,06,26,09,48,27.10
2021,06,26,09,49,27.20
2021,06,26,09,50,27.30
2021,06,26,09,51,27.30
2021,06,26,09,52,27.30
2021,06,26,09,53,27.30
2021,06,26,09,54,27.30
2021,06,26,09,55,27.20
2021,06,26,09,56,27.10
2021,06,26,09,57,27.00
2021,06,26,09,58,26.90
2021,06,26,09,59,26.80
2021,06,26,10,00,26.70
2021,06,26,10,01,26.70
2021,06,26,10,02,26.60
2021,06,26,10,03,26.50
2021,06,26,10,04,26.40
2021,06,26,10,05,26.20
2021,06,26,10,06,26.00
2021,06,26,10,07,25.80
2021,06,26,10,08,25.70
2021,06,26,10,09,25.50
2021,06,26,10,10,25.40
2021,06,26,10,11,25.40
2021,06,26,10,12,25.30
2021,06,26,10,13,25.30
2021,06,26,10,14,25.30
2021,06,26,10,15,25.30
2021,06,26,10,16,25.40
2021,06,26,10,17,25.50
2021,06,26,10,18,25.60
2021,06,26,10,19,25.70
2021,06,26,10,20,25.80
2021,06,26,10,21,26.00
2021,06,26,10,22,26.10
2021,06,26,10,23,26.30
2021,06,26,10,24,26.50
2021,06,26,10,25,26.70
2021,06,26,10,26,26.80
2021,06,26,10,27,27.00
2021,06,26,10,28,27.10
2021,06,26,10,29,27.20
2021,06,26,10,30,27.30
2021,06,26,10,31,27.30
2021,06,26,10,32,27.40
2021,06,26,10,33,27.40
2021,06,26,10,34,27.30
2021,06,26,10,35,27.30
2021,06,26,10,36,27.30
2021,06,26,10,37,27.30
2021,06,26,10,38,27.30
2021,06,26,10,39,27.40
2021,06,26,10,40,27.50
2021,06,26,10,41,27.60
2021,06,26,10,42,27.70
2021,06,26,10,43,27.70
2021,06,26,10,44,27.80
2021,06,26,10,45,27.90
2021,06,26,10,46,28.00
2021,06,26,10,47,28.10
2021,06,26,10,48,28.10
2021,06,26,10,49,28.10
2021,06,26,10,50,28.10
2021,06,26,10,51,28.20
2021,06,26,10,52,28.30
2021,06,26,10,53,28.30
2021,06,26,10,54,28.40
2021,06,26,10,55,28.40
2021,06,26,10,56,28.60
2021,06,26,10,57,28.70
2021,06,26,10,58,28.70
2021,06,26,10,59,28.70
2021,06,26,11,00,28.70
2021,06,26,11,01,28.70
2021,06,26,11,02,28.70
2021,06,26,11,03,28.70
2021,06,26,11,04,28.70
2021,06,26,11,05,28.80
2021,06,26,11,06,28.90
2021,06,26,11,07,28.90
2021,06,26,11,08,29.10
2021,06,26,11,09,29.10
2021,06,26,11,10,29.20
2021,06,26,11,11,29.30
2021,06,26,11,12,29.30
2021,06,26,11,13,29.30
2021,06,26,11,14,29.40
2021,06,26,11,15,29.40
2021,06,26,11,16,29.40
2021,06,26,11,17,29.40
2021,06,26,11,18,29.30
2021,06,26,11,19,29.30
2021,06,26,11,20,29.30
2021,06,26,11,21,29.30
2021,06,26,11,22,29.30
2021,06,26,11,23,29.30
2021,06,26,11,24,29.40
2021,06,26,11,25,29.40
2021,06,26,11,26,29.40
2021,06,26,11,27,29.50
2021,06,26,11,28,29.50
2021,06,26,11,29,29.60
2021,06,26,11,30,29.60
2021,06,26,11,31,29.70
2021,06,26,11,32,29.80
2021,06,26,11,33,30.00
2021,06,26,11,34,30.10
2021,06,26,11,35,30.10
2021,06,26,11,36,30.20
2021,06,26,11,37,30.20
2021,06,26,11,38,30.10
2021,06,26,11,39,30.10
2021,06,26,11,40,30.10
2021,06,26,11,41,30.10
2021,06,26,11,42,30.00
2021,06,26,11,43,29.90
2021,06,26,11,44,29.90
2021,06,26,11,45,29.80
2021,06,26,11,46,29.80
2021,06,26,11,47,29.80
2021,06,26,11,48,29.70
2021,06,26,11,49,29.70
2021,06,26,11,50,29.70
2021,06,26,11,51,29.70
2021,06,26,11,52,29.60
2021,06,26,11,53,29.60
2021,06,26,11,54,29.70
2021,06,26,11,55,29.70
2021,06,26,11,56,29.80
2021,06,26,11,57,29.90
2021,06,26,11,58,29.90
2021,06,26,11,59,30.00
2021,06,26,12,00,30.10
2021,06,26,12,01,30.10
2021,06,26,12,02,30.10
2021,06,26,12,03,30.20
2021,06,26,12,04,30.20
2021,06,26,12,05,30.20
2021,06,26,12,06,30.30
2021,06,26,12,07,30.30
2021,06,26,12,08,30.30
2021,06,26,12,09,30.30
2021,06,26,12,10,30.40
2021,06,26,12,11,30.50
2021,06,26,12,12,30.60
2021,06,26,12,13,30.70
2021,06,26,12,14,30.70
2021,06,26,12,15,30.70
2021,06,26,12,16,30.70
2021,06,26,12,17,30.60
2021,06,26,12,18,30.70
2021,06,26,12,19,30.70
2021,06,26,12,20,30.70
2021,06,26,12,21,30.80
2021,06,26,12,22,30.80
2021,06,26,12,23,30.80
2021,06,26,12,24,30.90
2021,06,26,12,25,30.90
2021,06,26,12,26,30.80
2021,06,26,12,27,30.80
2021,06,26,12,28,30.80
2021,06,26,12,29,30.80
2021,06,26,12,30,30.80
2021,06,26,12,31,30.80
2021,06,26,12,32,30.90
2021,06,26,12,33,30.90
2021,06,26,12,34,31.00
2021,06,26,12,35,31.00
2021,06,26,12,36,30.90
2021,06,26,12,37,30.90
2021,06,26,12,38,31.00
2021,06,26,12,39,31.00
2021,06,26,12,40,31.00
2021,06,26,12,41,31.00
2021,06,26,12,42,31.00
2021,06,26,12,43,31.00
2021,06,26,12,44,30.90
2021,06,26,12,45,30.90
2021,06,26,12,46,30.90
2021,06,26,12,47,30.90
2021,06,26,12,48,30.90
2021,06,26,12,49,30.90
2021,06,26,12,50,31.00
2021,06,26,12,51,31.10
2021,06,26,12,52,31.20
2021,06,26,12,53,31.20
2021,06,26,12,54,31.20
2021,06,26,12,55,31.20
2021,06,26,12,56,31.30
2021,06,26,12,57,31.40
2021,06,26,12,58,31.40
2021,06,26,12,59,31.50
2021,06,26,13,00,31.60
2021,06,26,13,01,31.60
2021,06,26,13,02,31.60
2021,06,26,13,03,31.70
2021,06,26,13,04,31.90
2021,06,26,13,05,32.00
2021,06,26,13,06,32.10
2021,06,26,13,07,32.10
2021,06,26,13,08,32.00
2021,06,26,13,09,31.90
2021,06,26,13,10,31.70
2021,06,26,13,11,31.70
2021,06,26,13,12,31.70
2021,06,26,13,13,31.70
2021,06,26,13,14,31.80
2021,06,26,13,15,31.80
2021,06,26,13,16,31.80
2021,06,26,13,17,31.90
2021,06,26,13,18,32.00
2021,06,26,13,19,32.10
2021,06,26,13,20,32.20
2021,06,26,13,21,32.30
2021,06,26,13,22,32.40
2021,06,26,13,23,32.50
2021,06,26,13,24,32.50
2021,06,26,13,25,32.60
2021,06,26,13,26,32.60
2021,06,26,13,27,32.50
2021,06,26,13,28,32.60
2021,06,26,13,29,32.50
2021,06,26,13,30,32.50
2021,06,26,13,31,32.50
2021,06,26,13,32,32.30
2021,06,26,13,33,32.10
2021,06,26,13,34,31.90
2021,06,26,13,35,31.70
2021,06,26,13,36,31.50
2021,06,26,13,37,31.30
2021,06,26,13,38,31.20
2021,06,26,13,39,31.00
2021,06,26,13,40,30.80
2021,06,26,13,41,30.70
2021,06,26,13,42,30.70
2021,06,26,13,43,30.60
2021,06,26,13,44,30.40
2021,06,26,13,45,30.30
2021,06,26,13,46,30.20
2021,06,26,13,47,30.10
2021,06,26,13,48,30.00
2021,06,26,13,49,29.90
2021,06,26,13,50,30.00
2021,06,26,13,51,30.10
2021,06,26,13,52,30.10
2021,06,26,13,53,30.10
2021,06,26,13,54,30.10
2021,06,26,13,55,30.10
2021,06,26,13,56,30.00
2021,06,26,13,57,29.90
2021,06,26,13,58,29.80
2021,06,26,13,59,29.70
2021,06,26,14,00,29.60
2021,06,26,14,01,29.60
2021,06,26,14,02,29.60
2021,06,26,14,03,29.60
2021,06,26,14,04,29.60
2021,06,26,14,05,29.60
2021,06,26,14,06,29.60
2021,06,26,14,07,29.60
2021,06,26,14,08,29.70
2021,06,26,14,09,29.80
2021,06,26,14,10,29.90
2021,06,26,14,11,29.90
2021,06,26,14,12,30.00
2021,06,26,14,13,29.90
2021,06,26,14,14,29.80
2021,06,26,14,15,29.80
2021,06,26,14,16,29.70
2021,06,26,14,17,29.60
2021,06,26,14,18,29.60
2021,06,26,14,19,29.70
2021,06,26,14,20,29.80
2021,06,26,14,21,29.80
2021,06,26,14,22,29.80
2021,06,26,14,23,29.90
2021,06,26,14,24,30.10
2021,06,26,14,25,30.20
2021,06,26,14,26,30.40
2021,06,26,14,27,30.70
2021,06,26,14,28,30.80
2021,06,26,14,29,30.90
2021,06,26,14,30,30.90
2021,06,26,14,31,31.00
2021,06,26,14,32,31.00
2021,06,26,14,33,30.90
2021,06,26,14,34,30.90
2021,06,26,14,35,30.90
2021,06,26,14,36,31.00
2021,06,26,14,37,31.00
2021,06,26,14,38,30.90
2021,06,26,14,39,30.80
2021,06,26,14,40,30.80
2021,06,26,14,41,30.70
2021,06,26,14,42,30.70
2021,06,26,14,43,30.60
2021,06,26,14,44,30.60
2021,06,26,14,45,30.60
2021,06,26,14,46,30.60
2021,06,26,14,47,30.60
2021,06,26,14,48,30.50
2021,06,26,14,49,30.40
2021,06,26,14,50,30.40
2021,06,26,14,51,30.40
2021,06,26,14,52,30.40
2021,06,26,14,53,30.60
2021,06,26,14,54,30.60
2021,06,26,14,55,30.60
2021,06,26,14,56,30.60
2021,06,26,14,57,30.70
2021,06,26,14,58,30.80
2021,06,26,14,59,30.80
2021,06,26,15,00,30.80
2021,06,26,15,01,30.90
2021,06,26,15,02,30.90
2021,06,26,15,03,31.00
2021,06,26,15,04,31.10
2021,06,26,15,05,31.30
2021,06,26,15,06,31.40
2021,06,26,15,07,31.50
2021,06,26,15,08,31.60
2021,06,26,15,09,31.60
2021,06,26,15,10,31.60
2021,06,26,15,11,31.50
2021,06,26,15,12,31.50
2021,06,26,15,13,31.60
2021,06,26,15,14,31.60
2021,06,26,15,15,31.80
2021,06,26,15,16,31.90
2021,06,26,15,17,32.20
2021,06,26,15,18,32.30
2021,06,26,15,19,32.50
2021,06,26,15,20,32.70
2021,06,26,15,21,32.80
2021,06,26,15,22,32.80
2021,06,26,15,23,32.80
2021,06,26,15,24,32.80
2021,06,26,15,25,32.80
2021,06,26,15,26,32.70
2021,06,26,15,27,32.60
2021,06,26,15,28,32.60
2021,06,26,15,29,32.70
2021,06,26,15,30,32.80
2021,06,26,15,31,32.90
2021,06,26,15,32,33.00
2021,06,26,15,33,33.00
2021,06,26,15,34,33.00
2021,06,26,15,35,33.10
2021,06,26,15,36,33.20
2021,06,26,15,37,33.20
2021,06,26,15,38,33.10
2021,06,26,15,39,32.80
2021,06,26,15,40,32.60
2021,06,26,15,41,32.50
2021,06,26,15,42,32.40
2021,06,26,15,43,32.40
2021,06,26,15,44,32.30
2021,06,26,15,45,32.40
2021,06,26,15,46,32.40
2021,06,26,15,47,32.50
2021,06,26,15,48,32.50
2021,06,26,15,49,32.50
2021,06,26,15,50,32.60
2021,06,26,15,51,32.60
2021,06,26,15,52,32.60
2021,06,26,15,53,32.60
2021,06,26,15,54,32.60
2021,06,26,15,55,32.60
2021,06,26,15,56,32.60
2021,06,26,15,57,32.60
2021,06,26,15,58,32.60
2021,06,26,15,59,32.60
2021,06,26,16,00,32.60
2021,06,26,16,01,32.80
2021,06,26,16,02,32.80
2021,06,26,16,03,32.70
2021,06,26,16,04,32.60
2021,06,26,16,05,32.80
2021,06,26,16,06,32.80
2021,06,26,16,07,32.80
2021,06,26,16,08,32.90
2021,06,26,16,09,32.90
2021,06,26,16,10,32.80
2021,06,26,16,11,32.60
2021,06,26,16,12,32.60
2021,06,26,16,13,32.60
2021,06,26,16,14,32.60
2021,06,26,16,15,32.80
2021,06,26,16,16,32.80
2021,06,26,16,17,32.80
2021,06,26,16,18,32.60
2021,06,26,16,19,32.60
2021,06,26,16,20,32.60
2021,06,26,16,21,32.50
2021,06,26,16,22,32.50
2021,06,26,16,23,32.50
2021,06,26,16,24,32.50
2021,06,26,16,25,32.60
2021,06,26,16,26,32.60
2021,06,26,16,27,32.60
2021,06,26,16,28,32.60
2021,06,26,16,29,32.60
2021,06,26,16,30,32.70
2021,06,26,16,31,32.90
2021,06,26,16,32,33.00
2021,06,26,16,33,33.10
2021,06,26,16,34,33.30
2021,06,26,16,35,33.40
2021,06,26,16,36,33.60
2021,06,26,16,37,33.70
2021,06,26,16,38,33.70
2021,06,26,16,39,33.70
2021,06,26,16,40,33.70
2021,06,26,16,41,33.70
2021,06,26,16,42,33.70
2021,06,26,16,43,33.70
2021,06,26,16,44,33.70
2021,06,26,16,45,33.70
2021,06,26,16,46,33.70
2021,06,26,16,47,33.80
2021,06,26,16,48,34.00
2021,06,26,16,49,34.10
2021,06,26,16,50,34.10
2021,06,26,16,51,34.20
2021,06,26,16,52,34.30
2021,06,26,16,53,34.40
2021,06,26,16,54,34.60
2021,06,26,16,55,34.70
2021,06,26,16,56,34.80
2021,06,26,16,57,34.80
2021,06,26,16,58,34.80
2021,06,26,16,59,34.80
2021,06,26,17,00,34.70
2021,06,26,17,01,34.70
2021,06,26,17,02,34.70
2021,06,26,17,03,34.70
2021,06,26,17,04,34.80
2021,06,26,17,05,34.80
2021,06,26,17,06,34.70
2021,06,26,17,07,34.70
2021,06,26,17,08,34.70
2021,06,26,17,09,34.60
2021,06,26,17,10,34.60
2021,06,26,17,11,34.70
2021,06,26,17,12,34.80
2021,06,26,17,13,34.80
2021,06,26,17,14,34.90
2021,06,26,17,15,35.00
2021,06,26,17,16,35.10
2021,06,26,17,17,35.10
2021,06,26,17,18,35.20
2021,06,26,17,19,35.20